Location: Jackson Park
(37.2862°N, 79.9123°W)
Time: 22:56:25
(UTC+00:00)

Explorer 11/Cluster Stage 4 - Pass Details

Date: 12 May 2026
Orbit: 463 x 1173 km, 28.8° (Epoch: 5 June)

Event Time Altitude Azimuth Distance (km) Brightness Sun altitude
Rises 05:53:13 0° 245° (WSW) 3,448 - -33.9°
Reaches altitude 10° 05:56:17 10° 235° (SW) 2,374 - -33.8°
Maximum altitude 06:01:02 29° 177° (S) 1,262 - -33.6°
Drops below altitude 10° 06:05:03 10° 117° (ESE) 1,978 - -33.4°
Sets 06:07:23 0° 105° (ESE) 2,780 - -33.3°
